W0LTA Weather Reports


Display with metric or nautical units.
time (UTC)temp
F
wind
direction
speed
MPH
gust
MPH
rain 1hr
in
rain 24hr
in
rain mn
in
humidity
%
barometer
mb
20180620094443 56 5 0.0 0.0 0.00 0.31 0.01 86 1020.9
20180620093928 57 5 0.0 0.0 0.00 0.31 0.01 86 1021.0
20180620092931 57 5 0.0 0.0 0.00 0.31 0.01 86 1021.0
20180620092444 57 5 0.0 0.0 0.00 0.31 0.01 86 1021.0
20180620091944 57 5 0.0 0.0 0.00 0.31 0.01 86 1021.0
20180620091441 57 5 0.0 0.0 0.00 0.31 0.01 85 1021.1
20180620090931 57 5 0.0 0.0 0.00 0.31 0.01 86 1021.3
20180620090428 57 5 0.0 0.0 0.00 0.31 0.01 85 1021.3
20180620085930 57 5 0.0 0.0 0.00 0.31 0.01 85 1021.5
20180620085439 57 5 0.0 0.0 0.01 0.31 0.01 85 1021.6
20180620084937 57 5 0.0 0.0 0.01 0.31 0.01 85 1021.7
20180620084439 57 5 0.0 0.0 0.01 0.31 0.01 85 1021.7
20180620083938 57 5 0.0 0.0 0.01 0.31 0.01 85 1021.6
20180620083444 57 5 0.0 0.0 0.01 0.31 0.01 85 1021.6
20180620082927 57 5 0.0 0.0 0.01 0.31 0.01 85 1021.6
20180620082427 57 5 0.0 0.0 0.01 0.31 0.01 85 1021.6
20180620081928 57 5 0.0 0.0 0.01 0.31 0.01 85 1021.6
20180620081433 57 5 0.0 0.0 0.01 0.31 0.01 85 1021.7
20180620080936 57 5 0.0 0.0 0.01 0.31 0.01 84 1021.7
20180620080434 58 5 0.0 0.0 0.01 0.31 0.01 84 1021.7
20180620075939 58 5 0.0 0.0 0.01 0.31 0.01 84 1021.7
20180620075438 58 5 0.0 0.0 0.00 0.31 0.00 84 1021.9
20180620074925 58 5 0.0 0.0 0.00 0.31 0.00 84 1021.9
20180620074427 58 5 0.0 0.0 0.00 0.31 0.00 84 1021.9
20180620073928 58 5 0.0 0.0 0.00 0.31 0.00 84 1022.0
20180620073430 58 5 0.0 0.0 0.00 0.31 0.00 84 1022.0
20180620072930 58 5 0.0 0.0 0.00 0.31 0.00 84 1021.8
20180620072432 58 5 0.0 0.0 0.00 0.31 0.00 84 1021.9
20180620071936 58 5 0.0 0.0 0.00 0.31 0.00 83 1022.0
20180620071447 58 360 0.0 0.0 0.00 0.31 0.00 83 1021.9
20180620070942 58 360 0.0 0.0 0.00 0.31 0.00 83 1021.9
20180620070443 58 360 0.0 0.0 0.00 0.31 0.00 83 1021.9
20180620065938 58 360 0.0 0.0 0.00 0.31 0.00 83 1021.9
20180620065438 58 360 0.0 0.0 0.00 0.31 0.00 83 1021.9
20180620064938 58 13 0.0 0.0 0.00 0.31 0.00 83 1022.0
20180620064441 58 14 0.0 0.0 0.00 0.31 0.00 83 1021.8
20180620063938 58 15 0.0 0.0 0.00 0.31 0.00 83 1022.0
20180620063440 58 15 0.0 0.0 0.00 0.31 0.00 83 1021.9
20180620062946 58 16 0.0 0.0 0.00 0.31 0.00 83 1021.9
20180620062436 58 16 0.0 0.0 0.00 0.31 0.00 83 1021.8
20180620061937 58 16 0.0 0.0 0.00 0.31 0.00 83 1021.7
20180620061438 58 15 0.0 0.0 0.00 0.31 0.00 83 1021.6
20180620060939 58 360 0.0 0.0 0.00 0.31 0.00 83 1021.4
20180620060441 58 360 0.0 0.0 0.00 0.31 0.00 82 1021.3
20180620055932 58 360 0.0 0.0 0.00 0.31 0.00 82 1021.3
20180620055442 58 360 0.0 0.0 0.00 0.31 0.31 82 1021.2
20180620054946 58 360 0.0 0.0 0.00 0.31 0.31 82 1021.1
20180620054424 58 360 0.0 0.0 0.00 0.31 0.31 82 1021.0
20180620053943 58 360 0.0 0.0 0.00 0.31 0.31 81 1020.9
20180620053444 58 360 0.0 0.0 0.00 0.31 0.31 81 1020.9
20180620052928 58 360 0.0 0.0 0.00 0.31 0.31 81 1020.7
20180620052430 58 360 0.0 0.0 0.00 0.31 0.31 81 1020.7
20180620051930 59 360 0.0 0.0 0.00 0.31 0.31 81 1020.7
20180620051448 59 16 0.0 0.0 0.00 0.31 0.31 81 1020.6
20180620050930 59 16 0.0 0.0 0.00 0.31 0.31 81 1020.7
20180620050441 59 16 0.0 0.0 0.00 0.31 0.31 81 1020.8
20180620045943 59 360 0.0 0.0 0.00 0.31 0.31 81 1020.6
20180620045426 59 360 0.0 0.0 0.00 0.31 0.31 81 1020.5
20180620044932 59 360 0.0 0.0 0.00 0.31 0.31 81 1020.5
20180620044433 58 360 0.0 0.0 0.00 0.31 0.31 81 1020.4
20180620043936 58 360 0.0 0.0 0.00 0.31 0.31 81 1020.4
20180620043437 58 360 0.0 0.0 0.00 0.31 0.31 81 1020.2
20180620042940 58 360 0.0 0.0 0.00 0.31 0.31 81 1020.3
20180620042441 58 360 0.0 0.0 0.00 0.31 0.31 81 1020.3
20180620041943 58 360 0.0 0.0 0.00 0.31 0.31 81 1020.2
20180620041441 59 360 0.0 0.0 0.00 0.31 0.31 80 1020.1
20180620040935 59 360 0.0 0.0 0.00 0.31 0.31 81 1020.0
20180620040442 59 360 0.0 0.0 0.00 0.31 0.31 81 1020.2
20180620035946 59 286 0.0 0.0 0.00 0.31 0.31 81 1020.2
20180620035446 59 283 0.0 0.0 0.00 0.33 0.31 81 1020.0
20180620034928 59 283 0.0 0.0 0.00 0.33 0.31 81 1019.9
20180620034431 59 360 0.0 0.0 0.00 0.33 0.31 81 1019.7
20180620033932 59 360 0.0 0.0 0.00 0.33 0.31 81 1019.6
20180620033437 59 360 0.0 0.0 0.00 0.33 0.31 81 1019.5
20180620032939 59 360 0.0 0.0 0.00 0.33 0.31 81 1019.5
20180620032440 59 360 0.0 0.0 0.00 0.33 0.31 81 1019.5
20180620031925 59 284 0.0 0.0 0.00 0.33 0.31 80 1019.5
20180620031433 59 284 0.0 0.0 0.00 0.33 0.31 80 1019.5
20180620030935 59 360 0.0 0.0 0.00 0.33 0.31 80 1019.5
20180620030436 59 284 0.0 0.0 0.00 0.33 0.31 80 1019.5
20180620025933 59 283 0.0 0.0 0.00 0.33 0.31 80 1019.5
20180620025431 59 360 0.0 0.0 0.00 0.61 0.31 80 1019.5
20180620024932 59 360 0.0 0.0 0.00 0.61 0.31 80 1019.5
20180620024429 59 360 0.0 0.0 0.00 0.61 0.31 80 1019.5
20180620023932 59 28 0.0 0.0 0.00 0.61 0.31 80 1019.5
20180620023434 59 30 0.0 0.0 0.00 0.61 0.31 79 1019.4
20180620022939 59 360 0.0 0.0 0.00 0.61 0.31 79 1019.0
20180620022440 59 360 0.0 0.0 0.00 0.61 0.31 78 1019.4
20180620021940 59 360 0.0 0.0 0.00 0.61 0.31 78 1019.5
20180620021440 60 9 0.0 0.0 0.00 0.61 0.31 78 1019.6
20180620020938 60 360 0.0 0.0 0.00 0.61 0.31 78 1019.5
20180620015944 60 360 0.0 0.0 0.00 0.61 0.31 77 1019.3
20180620015439 60 360 0.0 0.0 0.00 0.62 0.31 77 1019.0
20180620014942 60 360 0.0 1.0 0.00 0.62 0.31 76 1018.9
20180620014444 60 360 0.0 1.0 0.00 0.62 0.31 76 1019.1
20180620013927 60 360 0.0 0.0 0.00 0.62 0.31 75 1019.0
20180620013446 60 53 0.0 0.0 0.00 0.62 0.31 75 1019.0
20180620012925 60 360 0.0 0.0 0.00 0.62 0.31 74 1018.9
20180620012433 60 360 0.0 1.0 0.00 0.62 0.31 74 1018.8
20180620011930 60 360 0.0 1.0 0.00 0.62 0.31 73 1018.7
20180620011434 61 360 0.0 12.0 0.00 0.62 0.31 72 1018.5
20180620010933 61 360 0.0 16.0 0.00 0.62 0.31 72 1018.4
20180620010439 61 360 10.0 20.0 0.00 0.62 0.31 71 1017.9
20180620005934 61 26 14.0 20.0 0.00 0.62 0.31 70 1017.6
20180620005433 61 360 14.0 20.0 0.00 0.72 0.31 69 1017.6
20180620004931 61 360 14.0 20.0 0.00 0.72 0.31 68 1017.5
20180620004434 61 360 14.0 20.0 0.00 0.72 0.31 67 1017.5
20180620003941 61 360 16.0 20.0 0.00 0.72 0.31 66 1017.8
20180620003439 60 360 15.0 19.0 0.00 0.72 0.31 65 1017.5
20180620002939 60 360 14.0 20.0 0.00 0.72 0.31 64 1017.4
20180620002437 60 360 14.0 19.0 0.00 0.72 0.31 63 1017.5
20180620001936 60 360 12.0 19.0 0.00 0.72 0.31 62 1017.6
20180620001435 61 360 15.0 19.0 0.00 0.72 0.31 62 1017.7
20180620000943 61 38 13.0 20.0 0.00 0.72 0.31 62 1017.6
20180620000428 62 46 14.0 20.0 0.00 0.72 0.31 62 1017.5
20180619235930 63 46 17.0 21.0 0.00 0.72 0.31 63 1017.4
20180619235431 64 360 16.0 22.0 0.00 0.72 0.31 67 1017.4
20180619234934 65 65 16.0 21.0 0.00 0.72 0.31 68 1017.1
20180619234435 66 360 13.0 20.0 0.00 0.72 0.31 68 1016.9
20180619233937 66 360 15.0 20.0 0.00 0.72 0.31 67 1016.5
20180619233435 66 360 15.0 20.0 0.00 0.72 0.31 67 1016.3
20180619232934 67 360 14.0 18.0 0.00 0.72 0.31 68 1016.3
20180619232434 67 360 12.0 17.0 0.00 0.72 0.31 68 1015.8
20180619231932 68 360 10.0 14.0 0.00 0.72 0.31 66 1015.9
20180619231427 68 360 9.0 14.0 0.00 0.72 0.31 66 1015.8
20180619230927 68 360 9.0 14.0 0.00 0.72 0.31 66 1015.7
20180619230432 69 360 9.0 12.0 0.00 0.72 0.31 65 1015.7
20180619225929 69 51 1.0 10.0 0.00 0.72 0.31 63 1015.7
20180619225434 69 360 0.0 0.0 0.00 0.72 0.31 62 1015.7
20180619224933 70 360 0.0 0.0 0.00 0.72 0.31 62 1015.6
20180619224432 70 360 0.0 0.0 0.00 0.72 0.31 62 1015.5
20180619223931 71 360 0.0 0.0 0.00 0.72 0.31 61 1015.3
20180619223432 71 360 0.0 0.0 0.00 0.72 0.31 61 1015.2
20180619222945 72 360 0.0 0.0 0.00 0.72 0.31 61 1015.2
20180619222447 72 360 0.0 0.0 0.00 0.72 0.31 61 1015.1
20180619221924 72 360 0.0 1.0 0.00 0.72 0.31 62 1015.0
20180619221430 72 360 0.0 1.0 0.00 0.72 0.31 62 1015.0
20180619220930 72 360 0.0 0.0 0.00 0.72 0.31 61 1015.0
20180619220430 73 360 0.0 0.0 0.00 0.72 0.31 62 1014.9
20180619215946 72 360 0.0 0.0 0.00 0.72 0.31 63 1014.8
20180619215442 72 360 0.0 0.0 0.00 0.72 0.31 64 1014.8
20180619214926 72 360 0.0 0.0 0.00 0.72 0.31 65 1014.9
20180619214428 71 45 0.0 0.0 0.00 0.72 0.31 66 1014.9
20180619213934 71 360 0.0 0.0 0.00 0.72 0.31 67 1014.8
20180619213434 70 74 0.0 0.0 0.00 0.72 0.31 68 1014.9
20180619212937 70 360 0.0 0.0 0.00 0.72 0.31 70 1015.1
20180619212432 70 360 0.0 0.0 0.00 0.72 0.31 70 1015.2
20180619211934 70 360 0.0 0.0 0.00 0.72 0.31 70 1015.4
20180619211440 70 73 0.0 0.0 0.00 0.72 0.31 72 1015.5
20180619210938 70 71 0.0 0.0 0.00 0.72 0.31 74 1015.6
20180619210440 69 61 0.0 0.0 0.00 0.72 0.31 76 1015.7
20180619205944 69 360 0.0 0.0 0.00 0.72 0.31 77 1015.7
20180619205441 68 360 0.0 0.0 0.00 0.72 0.31 79 1015.8
20180619204941 68 63 0.0 0.0 0.00 0.72 0.31 79 1015.8
20180619204445 67 61 0.0 0.0 0.00 0.72 0.31 79 1015.8
20180619203926 67 58 0.0 0.0 0.00 0.72 0.31 79 1015.8
20180619203430 66 49 0.0 0.0 0.00 0.72 0.31 81 1015.8
20180619202933 65 54 0.0 0.0 0.00 0.72 0.31 83 1015.7
20180619202435 64 53 0.0 0.0 0.00 0.72 0.31 83 1015.7
20180619201936 63 51 0.0 0.0 0.00 0.72 0.31 83 1015.7
20180619201435 63 49 0.0 0.0 0.03 0.72 0.31 83 1015.6
20180619200933 62 78 0.0 1.0 0.14 0.72 0.31 84 1015.5
20180619200434 61 113 0.0 1.0 0.27 0.72 0.31 84 1015.4
20180619195935 60 73 0.0 1.0 0.30 0.72 0.31 84 1015.4
20180619195434 58 146 0.0 1.0 0.30 0.72 0.31 84 1015.4
20180619194935 57 360 0.0 5.0 0.30 0.72 0.31 83 1015.7
20180619194441 57 179 0.0 5.0 0.30 0.72 0.31 82 1015.9
20180619193927 56 115 0.0 2.0 0.30 0.72 0.31 82 1016.0
20180619193430 55 113 0.0 3.0 0.30 0.72 0.31 80 1016.3
20180619192932 55 111 0.0 3.0 0.30 0.72 0.31 79 1016.5
20180619192433 56 360 0.0 0.0 0.30 0.72 0.31 78 1016.7
20180619191933 57 74 0.0 0.0 0.30 0.72 0.31 75 1016.8
20180619191436 58 360 0.0 3.0 0.25 0.67 0.26 72 1017.5
20180619190944 61 80 0.0 11.0 0.15 0.57 0.16 70 1017.5
20180619190439 65 360 5.0 11.0 0.02 0.44 0.03 70 1017.5
20180619185939 67 360 5.0 17.0 0.00 0.42 0.01 69 1017.3
20180619185431 69 360 10.0 22.0 0.00 0.42 0.01 65 1016.1
20180619184934 70 360 17.0 22.0 0.00 0.42 0.01 61 1015.3
20180619184435 71 360 14.0 18.0 0.00 0.42 0.01 59 1015.2
20180619183931 71 360 6.0 11.0 0.00 0.42 0.01 59 1015.6
20180619183434 72 360 3.0 7.0 0.00 0.42 0.01 59 1016.1
20180619182937 72 43 5.0 7.0 0.00 0.42 0.01 58 1016.0
20180619182435 72 360 3.0 6.0 0.00 0.42 0.01 57 1016.4
20180619181938 72 360 4.0 6.0 0.00 0.42 0.01 56 1017.1
20180619181440 72 185 0.0 4.0 0.00 0.42 0.01 56 1016.8
20180619180941 72 185 1.0 4.0 0.00 0.42 0.01 57 1016.9
20180619180426 72 185 0.0 3.0 0.00 0.42 0.01 57 1017.2
20180619175931 72 185 0.0 4.0 0.00 0.42 0.01 55 1017.3
20180619175428 72 360 0.0 7.0 0.00 0.42 0.01 56 1017.5
20180619174933 72 360 3.0 7.0 0.00 0.42 0.01 55 1017.6
20180619174430 72 360 0.0 7.0 0.00 0.42 0.01 57 1017.5
20180619173932 73 188 3.0 9.0 0.00 0.42 0.01 55 1017.5
20180619173435 73 360 5.0 12.0 0.00 0.42 0.01 55 1017.7
20180619172934 73 360 0.0 7.0 0.00 0.42 0.01 57 1017.8
20180619172435 72 191 2.0 11.0 0.00 0.42 0.01 55 1018.0
20180619171940 72 360 6.0 12.0 0.00 0.42 0.01 58 1018.2
20180619171440 72 360 7.0 12.0 0.00 0.42 0.01 56 1018.3
20180619170944 72 360 5.0 9.0 0.00 0.42 0.01 58 1018.3
20180619170425 71 360 5.0 10.0 0.00 0.42 0.01 61 1018.4
20180619165930 70 360 6.0 10.0 0.00 0.42 0.01 60 1018.4
20180619165426 70 143 5.0 12.0 0.00 0.42 0.01 60 1018.4
20180619164931 70 182 5.0 12.0 0.00 0.42 0.01 60 1018.4
20180619164430 70 360 1.0 9.0 0.00 0.42 0.01 62 1018.5
20180619163934 69 180 4.0 9.0 0.00 0.42 0.01 63 1018.5
20180619163433 68 360 4.0 8.0 0.00 0.42 0.01 62 1018.6
20180619162932 68 360 4.0 10.0 0.00 0.42 0.01 63 1018.7
20180619162433 68 360 7.0 10.0 0.00 0.42 0.01 63 1018.8
20180619161935 69 360 3.0 6.0 0.00 0.42 0.01 65 1018.8
20180619161437 68 360 5.0 7.0 0.00 0.42 0.01 65 1018.8
20180619160940 68 360 4.0 12.0 0.00 0.42 0.01 66 1018.9
20180619160440 68 360 4.0 12.0 0.00 0.42 0.01 67 1018.9
20180619155939 67 360 4.0 12.0 0.00 0.42 0.01 69 1018.9
20180619155438 66 360 3.0 12.0 0.00 0.42 0.01 70 1019.0
20180619154941 66 360 4.0 8.0 0.00 0.42 0.01 72 1019.0
20180619154439 66 360 2.0 8.0 0.00 0.42 0.01 73 1019.1
20180619153926 65 360 3.0 8.0 0.00 0.42 0.01 75 1019.2
20180619153423 65 191 2.0 7.0 0.00 0.42 0.01 76 1019.2
20180619152945 64 196 4.0 5.0 0.00 0.42 0.01 77 1019.3
20180619152442 63 360 0.0 6.0 0.00 0.42 0.01 78 1019.3
20180619151925 63 360 4.0 6.0 0.00 0.42 0.01 78 1019.4
20180619151427 63 202 0.0 4.0 0.00 0.42 0.01 79 1019.5
20180619150931 62 360 0.0 6.0 0.00 0.42 0.01 80 1019.6
20180619150434 62 202 4.0 6.0 0.00 0.42 0.01 80 1019.6
20180619145931 62 198 2.0 6.0 0.00 0.42 0.01 81 1019.7
20180619145433 62 360 3.0 7.0 0.00 0.42 0.01 82 1019.7
20180619144932 62 360 3.0 8.0 0.00 0.42 0.01 82 1019.8
20180619144435 62 360 4.0 8.0 0.00 0.42 0.01 83 1019.9
20180619143937 61 197 0.0 5.0 0.00 0.42 0.01 84 1019.9
20180619143437 61 360 4.0 5.0 0.00 0.42 0.01 84 1019.8
20180619142934 61 360 3.0 6.0 0.00 0.42 0.01 85 1019.9
20180619142435 60 184 2.0 10.0 0.00 0.42 0.01 85 1019.9
20180619141936 60 360 4.0 11.0 0.00 0.42 0.01 85 1019.9
20180619141438 60 360 4.0 11.0 0.00 0.42 0.01 86 1019.9
20180619140940 60 360 4.0 8.0 0.00 0.42 0.01 86 1019.9
20180619140439 60 181 4.0 6.0 0.00 0.42 0.01 87 1019.9
20180619135943 60 360 3.0 6.0 0.00 0.42 0.01 87 1019.9
20180619135442 60 360 4.0 6.0 0.00 0.42 0.01 87 1019.9
20180619134943 60 360 3.0 6.0 0.00 0.42 0.01 88 1020.0
20180619134441 59 360 4.0 8.0 0.00 0.42 0.01 88 1019.9
20180619133926 59 360 5.0 8.0 0.00 0.42 0.01 88 1019.9
20180619133428 59 360 4.0 8.0 0.00 0.42 0.01 88 1020.1
20180619132933 59 360 6.0 8.0 0.00 0.42 0.01 88 1020.1
20180619132432 59 360 4.0 7.0 0.00 0.42 0.01 89 1020.0
20180619131932 59 360 2.0 6.0 0.00 0.42 0.01 89 1020.0
20180619131435 59 360 3.0 6.0 0.00 0.42 0.01 89 1020.0
20180619130939 58 185 0.0 3.0 0.00 0.42 0.01 89 1020.1
20180619130422 58 360 0.0 6.0 0.00 0.42 0.01 89 1020.0
20180619125929 58 360 3.0 7.0 0.00 0.42 0.01 89 1020.1
20180619125544 58 184 2.0 7.0 0.00 0.42 0.01 89 1020.1
20180619124926 58 360 1.0 5.0 0.00 0.42 0.01 89 1020.1
20180619124430 58 360 3.0 6.0 0.00 0.42 0.01 89 1020.0
20180619123932 58 165 3.0 6.0 0.00 0.42 0.01 89 1020.1
20180619123436 58 360 0.0 5.0 0.00 0.42 0.01 89 1020.2
20180619122941 58 150 3.0 4.0 0.00 0.42 0.01 89 1020.2
20180619122438 58 360 0.0 5.0 0.00 0.42 0.01 90 1020.2
20180619121942 58 360 1.0 5.0 0.00 0.42 0.01 89 1020.2
20180619121446 58 360 0.0 4.0 0.00 0.42 0.01 89 1020.2
20180619120924 58 360 1.0 4.0 0.00 0.42 0.01 90 1020.2
20180619120425 58 118 0.0 3.0 0.00 0.42 0.01 90 1020.1
20180619115927 58 360 0.0 4.0 0.00 0.42 0.01 90 1020.2
20180619115429 58 360 1.0 4.0 0.00 0.42 0.01 90 1020.2
20180619114937 58 360 0.0 0.0 0.00 0.42 0.01 90 1020.2
20180619114438 58 360 0.0 0.0 0.00 0.42 0.01 90 1020.2
20180619113940 58 360 0.0 0.0 0.00 0.42 0.01 90 1020.2
20180619113442 58 360 0.0 0.0 0.00 0.42 0.01 90 1020.2
20180619112945 58 360 0.0 0.0 0.00 0.42 0.01 90 1020.1
20180619112428 58 360 0.0 3.0 0.00 0.42 0.01 90 1019.9
20180619111931 59 360 0.0 3.0 0.00 0.42 0.01 90 1019.9
20180619111430 59 360 0.0 3.0 0.00 0.42 0.01 90 1019.8
20180619111002 59 360 0.0 5.0 0.00 0.42 0.01 90 1019.8
20180619110448 59 116 1.0 5.0 0.00 0.42 0.01 90 1019.8
20180619105932 59 113 1.0 5.0 0.00 0.42 0.01 90 1019.7
20180619105434 59 360 0.0 3.0 0.00 0.44 0.01 90 1019.7
20180619104933 59 360 1.0 3.0 0.00 0.44 0.01 90 1019.7
20180619104432 59 360 0.0 1.0 0.00 0.44 0.01 90 1019.8
20180619103938 59 360 0.0 1.0 0.00 0.44 0.01 90 1019.8
20180619103439 59 360 0.0 0.0 0.00 0.44 0.01 90 1019.9
20180619102938 59 360 0.0 4.0 0.00 0.44 0.01 90 1019.8
20180619102433 59 360 0.0 4.0 0.00 0.44 0.01 90 1019.7
20180619101930 59 360 0.0 2.0 0.00 0.44 0.01 90 1019.6
20180619101436 59 360 0.0 3.0 0.00 0.44 0.01 90 1019.5
20180619100936 59 109 0.0 4.0 0.00 0.44 0.01 90 1019.5
20180619100439 59 360 0.0 4.0 0.00 0.44 0.01 90 1019.5
20180619095935 59 360 0.0 3.0 0.00 0.44 0.01 90 1019.5
20180619095431 59 360 1.0 3.0 0.00 0.44 0.01 90 1019.5
20180619094943 59 360 0.0 0.0 0.00 0.44 0.01 90 1019.5